RS-44 & BREEZE-KM R/B (44909 NORAD) Tracking and Keplerian Element Data

This shows tracking and keplerian element data for the satellite.

Feedback or suggestion? Click here.




ElementValue
Catalog44909
NameRS-44 & BREEZE-KM R/B
Epoch Orbit23860
Epoch Day34.83953892
Epoch Year2025
RAAN310.8423
Inclination82.5242
Eccentricity0.0216505
Argument of Perigee229.4402
Mean Anonmoly128.7675
Mean Motion12.79738118
Decay Rate2.7E-07
L11 44909U 19096E 25034.83953892 .00000027 00000+0 70310-4 0 9995
L22 44909 82.5242 310.8423 0216505 229.4402 128.7675 12.79738118238606



Live tracking and technical data element details for RS-44 & BREEZE-KM R/B (NORAD 44909). RS-44 & BREEZE-KM R/B can be tracked NOW for your location showing map with azimuth and elevation plus other details from your city location.







IsCatalogInMostPopularTable: catalog: 44909, numindb: 4103
Update: records affected: 1



GetName: 44909 RS-44 & BREEZE-KM R/B

Hit Count: updated at: Thu, 10 Jul 2025 22:24:13 GMT